Location: Newark
(43.0000°N, 1.6781°W)
Time: 10:49:53
(UTC+00:00)

Explorer 7 - Pass Details

Date: 21 April 2021
Orbit: 484 x 677 km, 50.3° (Epoch: 07 May)

Event Time Altitude Azimuth Distance (km) Brightness Sun altitude
Rises 20:36:23 0° 259° (W) 2,633 11.0 -17.1°
Reaches altitude 10° 20:38:35 10° 265° (W) 1,775 10.1 -17.4°
Maximum altitude 20:42:29 46° 340° (NNW) 745 7.8 -18.0°
Drops below altitude 10° 20:46:39 10° 55° (NE) 1,894 9.4 -18.6°
Enters shadow 20:47:13 - 57° (ENE) 2,112 9.6 -18.7°
Sets 20:49:05 0° 61° (ENE) 2,832 - -19.0°
